sat.trackr.live / text

‹ back to catalog

STARLINK-4327

NORAD 53079 · 2022-077AN

PAYLOAD ACTIVE UNKNOWN

§ Identity

Operator
Country
US
Launch date
2022-07-11
Launch site
AFWTR
Launch vehicle
Mass (kg)
RCS (m²)

Purposes: comms

External: N2YO · Heavens-Above · Gunter

§ Orbital elements

Epoch: 2026-09-19T22:19:05.366208Z

Period
93.91 min
Inclination
97.2856°
Eccentricity
0.0001571
Mean motion
15.33437096 rev/d
Perigee alt
464.5 km
Apogee alt
466.6 km
Semi-major
6,843.7 km
B*
1.4877e-5
RAAN
78.6094°
Arg perigee
88.9976°
Mean anomaly
271.1447°
Rev number
23,026

§ Raw data

STARLINK-43271 53079U 22077AN  26262.92992322  .00000405  00000+0  14877-4 0  99972 53079  97.2856  78.6094 0001571  88.9976 271.1447 15.33437096230268

JSON: /api/v1/satellites/53079 · /tle

For live sub-satellite position, see the globe view (requires WebGL).

§ Visibility from observer

Set your observer location to see the next 7 days of passes ≥ 10°. The values pass through the URL so the page stays shareable.

No JS? Fill the form by hand. The geolocation button needs JavaScript.